     2              OBSERVATION DATA    GPS                 RINEX VERSION / TYPE
srx-v1.3-(5/19/93) SEISMO 13-DEC-1996                       PGM / RUN BY / DATE
                                                            COMMENT
sig: 9 8 7 6 5 4 1 0                                        COMMENT
sig: 9 8 7 6 5 4 1 0                                        COMMENT
sig: 9 8 7 6 5 4 1 0                                        COMMENT
Original Marker Name: DAYZ                                  COMMENT
Campaign Name: HMC San Gabriel Valley 1993-1996             COMMENT
4-Character Station Name: DAYZ                              COMMENT
6-Character Antenna Code: DMRCHT                            COMMENT
Vertical Measurement Point: BPA                             COMMENT
Vertical Offset to Rinex Ref. Point: 0.0000                 COMMENT
Radial Measurement Point: RRP                               COMMENT
Radial Offset to Rinex Ref. Point: 0.0000                   COMMENT
Antenna Height from Field Measurement: 0.0806 m             COMMENT
Additional Antenna Identification Info.:                    COMMENT
Turborogue and Ashtech Choke Ring                           COMMENT
Antenna aligned to magnetic north.                          COMMENT
Original XYZ: -2445346.5880 -4687337.2108 3561898.1299      COMMENT
New XYZ position is based on association with SCEC monument COMMENT
E1D0R5C5+0011. Position of that monument is believed to be  COMMENT
valid to within 1 m horizontally; vertical accuracy         COMMENT
should be no worse than 3-times this value.                 COMMENT
                                                            COMMENT
Revised Rinex header created by UCSD GPS archive for        COMMENT
GSAC on 13-Apr-1999 (1999:103) 22:49:46 GMT                 COMMENT
For assistance contact dagnew@ucsd.edu or hjohnson@ucsd.edu COMMENT
                                                            COMMENT
DAY CANYON AZIMUTH                                          MARKER NAME
DAYZ                                                        MARKER NUMBER
GAL HARVEY MUDD COLLEGE                                     OBSERVER / AGENCY
262 TURBOROGUE SNR-8000 3.2                                 REC # / TYPE / VERS
260 DORNE-MARGOL. TYPE T                                    ANT # / TYPE
 -2442579.0000 -4684604.0000  3562707.0000                  APPROX POSITION XYZ
        0.0806        0.0000        0.0000                  ANTENNA: DELTA H/E/N
     1     1     0                                          WAVELENGTH FACT L1/2
     5    L1    L2    P1    P2    C1                        # / TYPES OF OBSERV
    30                                                      INTERVAL
  1996    12     2    22    53    0.000000                  TIME OF FIRST OBS
  1996    12     2    23    59   30.000000                  TIME OF LAST OBS
     9                                                      # OF SATELLITES
                                                            END OF HEADER
 96 12  2 22 53  0.0000000  0  6G27G19G31G18G 3G29
        -0.39354         0.47554                  23779908.2294   23779910.8134
        -0.86654        -0.24454                  21200434.7764   21200435.7594
        -1.16854        -0.80154                  23338252.6534   23338253.8024
        -0.55554         0.19654                  20161528.9574   20161529.1814
        -0.26654        -0.11854                  23353786.1944   23353787.3034
        -1.03654        -1.38854                  22224545.5344   22224545.8154
 96 12  2 22 53 30.0000000  0  7G27G19G31G18G 3G16G29
    -67572.44444    -52652.95744                  23767049.9344   23767051.6684
    -32601.95944    -25403.66444                  21194231.0414   21194231.8054
    -79341.53044    -61824.39844                  23323154.5334   23323155.6774
    -17188.70144    -13393.15344                  20158258.2334   20158258.3584
    -28111.79944    -21905.15844                  23348437.1914   23348437.6114
         0.24654         0.74754                  21223272.9374   21223274.5084
     72942.59344     56837.79144                  22238426.3124   22238426.1934
 96 12  2 22 54  0.0000000  0  7G27G19G31G18G 3G16G29
   -135736.21844   -105767.46944                  23754078.7364   23754079.9284
    -65714.13144    -51205.32844                  21187930.1214   21187930.6924
   -159182.90944   -124038.39144                  23307961.0584   23307963.3584
    -34633.29444    -26986.33244                  20154938.5664   20154938.8464
    -56449.76144    -43986.63844                  23343044.1754   23343046.0484
     45926.96444     35787.80044                  21232012.6864   21232014.2024
    145548.89244    113414.10544                  22252242.8814   22252242.9974
 96 12  2 22 54 30.0000000  0  7G27G19G31G18G 3G16G29
   -205532.45944   -160154.05644                  23740796.7174   23740798.2144
   -100342.74644    -78188.63944                  21181340.4874   21181341.1774
   -240531.47344   -187426.82644                  23292480.9664   23292483.3094
    -53360.43744    -41578.90144                  20151375.0114   20151375.1274
    -86039.50944    -67043.52644                  23337413.2014   23337415.0594
     90679.56044     70659.94944                  21240528.7324   21240530.1904
    216801.34844    168935.47844                  22265801.8564   22265801.7674
 96 12  2 22 55  0.0000000  0  7G27G19G31G18G 3G16G29
   -275782.13044   -214893.97544                  23727428.7874   23727430.1534
   -135296.63744   -105425.41344                  21174688.8054   21174689.6044
   -322192.12244   -251058.42144                  23276941.5014   23276942.0974
    -72183.99844    -56246.60144                  20147792.8364   20147793.0114
   -115682.71644    -90142.07444                  23331772.1594   23331773.5034
    135421.70344    105523.95744                  21249042.7274   21249044.4894
    287872.89944    224315.89144                  22279326.1544   22279326.4854
 96 12  2 22 55 30.0000000  0  7G27G19G31G18G 3G16G29
   -346061.68644   -269657.17544                  23714054.9494   23714057.4604
   -170150.42144   -132584.17844                  21168056.3754   21168057.1974
   -403723.64544   -314589.38744                  23261426.5644   23261427.7454
    -90665.31344    -70647.61444                  20144275.9734   20144276.2624
   -144951.12544   -112948.56044                  23326202.7974   23326203.8494
    180561.18244    140697.58044                  21257632.4514   21257634.0784
    359181.50044    279881.02144                  22292895.6664   22292896.0104
 96 12  2 22 56  0.0000000  0  7G27G19G31G18G 3G16G29
   -416500.80544   -324544.72844                  23700650.8424   23700652.8214
   -205026.99244   -159760.70344                  21161419.5864   21161420.6854
   -485251.85344   -378117.78044                  23245912.4044   23245911.8924
   -108922.28444    -84873.81544                  20140801.8784   20140801.9904
   -173973.26744   -135563.16144                  23320680.6444   23320681.0974
    225963.70344    176076.16544                  21266272.3614   21266273.9714
    430590.19344    335524.14344                  22306484.5554   22306484.6184
 96 12  2 22 56 30.0000000  0  7G27G19G31G18G 3G16G29
   -486983.00344   -379465.83844                  23687238.3284   23687239.0834
   -239804.90544   -186860.35444                  21154801.5374   21154802.6514
   -566658.00644   -441551.06244                  23230421.4944   23230422.1144
   -126831.75544    -98829.23644                  20137393.8264   20137393.9334
   -202627.00144   -157890.68544                  23315227.8514   23315228.0974
    271762.07244    211763.20344                  21274987.5674   21274989.0844
    502205.95244    391328.61144                  22320112.4684   22320112.5734
 96 12  2 22 57  0.0000000  0  7G27G19G31G18G 3G16G29
   -557346.54944   -434294.51244                  23673848.4384   23673850.3994
   -274366.64544   -213791.56144                  21148224.6504   21148225.6094
   -647809.40744   -504785.82544                  23214979.0244   23214979.6014
   -144259.05044   -112408.93544                  20134077.4944   20134077.5434
   -230773.93444   -179823.30444                  23309870.9974   23309871.9214
    318110.94844    247879.20844                  21283807.6254   21283809.2014
    574155.93444    447393.52144                  22333803.8134   22333804.0974
 96 12  2 22 57 30.0000000  0  7G27G19G31G18G 3G16G29
   -627655.21844   -489080.40544                  23660469.1694   23660471.1404
   -308774.83844   -240603.11844                  21141676.9414   21141677.9784
   -728784.95144   -567883.57244                  23199569.3794   23199569.9344
   -161275.48844   -125668.48744                  20130839.3814   20130839.4124
   -258496.97544   -201425.63744                  23304595.1554   23304597.0544
    364950.12244    284377.26044                  21292720.7834   21292722.6674
    646367.49944    503662.25844                  22347545.3784   22347545.4194
 96 12  2 22 58  0.0000000  0  7G27G19G31G18G 3G16G29
   -697887.34144   -543806.66744                  23647104.6534   23647105.8034
   -342992.68844   -267266.35544                  21135165.4744   21135166.3824
   -809568.34544   -630831.59144                  23184196.5364   23184197.7404
   -177874.14344   -138602.49644                  20127680.7704   20127681.0624
   -285772.64144   -222679.35044                  23299405.1374   23299405.6064
    412299.17344    321272.62144                  21301730.8314   21301732.5504
    718852.65744    560144.19044                  22361339.0624   22361338.9604
 96 12  2 22 58 30.0000000  0  7G27G19G31G18G 3G16G29
   -768038.35544   -598469.73644                  23633755.4114   23633757.5804
   -377014.86144   -293777.11444                  21128691.3124   21128691.9424
   -890147.34844   -693620.34344                  23168862.7314   23168864.7564
   -194063.27744   -151217.39244                  20124600.0014   20124600.2624
   -312598.06244   -243582.22744                  23294300.8284   23294301.4114
    460158.03844    358565.24144                  21310838.0294   21310839.8014
    791614.00144    616841.33144                  22375185.3214   22375185.0194
 96 12  2 22 59  0.0000000  0  7G27G19G31G18G 3G16G29
   -838083.91144   -653050.64344                  23620426.0614   23620426.8264
   -410830.92544   -320127.27444                  21122256.4324   21122257.0894
   -970510.29444   -756240.74144                  23153569.9224   23153571.2444
   -209831.45644   -163504.27244                  20121599.4514   20121599.6834
   -338965.73744   -264128.42744                  23289283.0894   23289282.7784
    508528.42244    396256.44044                  21320042.7974   21320044.4424
    864668.30244    673766.74344                  22389086.9784   22389086.6634
 96 12  2 22 59 30.0000000  0  7G27G19G31G18G 3G16G29
   -908048.01044   -707568.06444                  23607112.1524   23607114.0114
   -444431.76944   -346309.72944                  21115862.2974   21115862.8604
  -1050644.26644   -818682.70944                  23138321.2004   23138322.1164
   -225181.56344   -175465.38344                  20118678.5144   20118678.5924
   -364873.65844   -284316.37044                  23284352.6054   23284353.4434
    557404.95844    434342.04444                  21329343.6834   21329345.2164
    938017.48544    730921.94444                  22403044.7364   22403045.1954
 96 12  2 23  0  0.0000000  0  6G19G27G31G18G 3G16
   -477845.13044   -372346.09444                  21109503.9614   21109504.4724
   -977948.79444   -762036.16344                  23593810.4534   23593812.1664
  -1130549.36944   -880946.34544                  23123116.1504   23123116.2434
   -240127.37544   -187111.45944                  20115834.5114   20115834.4164
   -390326.50244   -304149.71744                  23279509.1774   23279510.0684
    606771.40444    472809.39744                  21338737.6094   21338739.3254
 96 12  2 23  0 30.0000000  0  7G27G19G31G18G 3G16G 2
  -1047795.01744   -816461.72744                  23580519.1804   23580520.5294
   -511089.41644   -398250.71044                  21103177.8284   21103178.3784
  -1210220.93244   -943027.99444                  23107954.6794   23107954.9424
   -254667.34244   -198441.29644                  20113067.4224   20113067.4204
   -415326.39944   -323630.13244                  23274751.8484   23274752.6374
    656630.67544    511660.77144                  21348225.6114   21348227.3214
        -0.31054                                                  25511585.1324
 96 12  2 23  1  0.0000000  0  7G19G27G31G18G 3G16G 2
   -544148.94744   -424011.36244                  21096886.7324   21096887.3474
  -1117577.52644   -870837.65144                  23567239.8324   23567241.8084
  -1289641.41944  -1004914.01544                  23092841.0844   23092842.6614
   -268769.83644   -209430.24144                  20110383.8384   20110383.8964
   -439855.78544   -342743.90144                  23270084.3154   23270085.3144
    706996.50844    550906.86544                  21357810.0134   21357811.5754
    -97498.48644    -75971.71644                                  25493031.8274
 96 12  2 23  1 30.0000000  0  7G27G19G31G18G 3G16G 2
  -1187332.69844   -925192.27244                  23553966.0304   23553967.5254
   -577051.53044   -449649.71644                  21090625.4134   21090626.2114
  -1368838.42844  -1066625.89244                  23077770.4824   23077771.0524
   -282452.45144   -220092.00744                  20107780.0984   20107780.1784
   -463929.23844   -361502.40744                  23265503.1324   23265503.9384
    757836.34544    590522.31344                  21367484.5554   21367486.0634
   -194939.72844                                                  25474489.1874
 96 12  2 23  2  0.0000000  0  7G27G19G31G18G 3G16G 2
  -1257024.36744   -979497.41044                  23540704.1574   23540705.5764
   -609791.31044   -475161.21844                  21084395.3604   21084396.2124
  -1447809.21444  -1128161.49844                  23062742.9344   23062743.5774
   -295696.22944   -230411.82944                  20105260.0464   20105260.0084
   -487529.23744   -379891.99444                  23261011.9064   23261011.7704
    809149.32044    630506.43944                  21377248.9844   21377250.7434
   -292293.65644                                                  25455962.6744
 96 12  2 23  2 30.0000000  0  7G27G19G31G18G 3G16G 2
  -1326638.71344  -1033742.29944                  23527456.8884   23527458.6234
   -642344.78844   -500527.54444                  21078200.7204   21078201.4074
  -1526549.26544  -1189517.30744                  23047759.6744   23047760.6254
   -308479.82944   -240373.06944                  20102827.3324   20102827.6394
   -510642.43244   -397902.24044                  23256613.6614   23256614.8834
    860929.25244    670854.43344                  21387102.3844   21387104.3044
   -389542.06544                                                  25437456.6064
 96 12  2 23  3  0.0000000  0  7G27G19G31G18G 3G16G 2
  -1396148.35444  -1087905.60944                  23514229.5094   23514230.4734
   -674685.29844   -525727.92144                  21072046.3944   21072046.9284
  -1605044.87144  -1250682.63544                  23032822.2174   23032823.8004
   -320775.30544   -249953.95344                  20100487.6474   20100487.6724
   -533244.38244   -415514.12044                  23252312.6704   23252313.2324
    913189.15044    711576.42444                  21397047.2514   21397048.8654
   -486659.08144   -379212.84044                                  25418976.3084
 96 12  2 23  3 30.0000000  0  7G27G19G31G18G 3G16G 2
  -1465558.02244  -1141991.01944                  23501021.1024   23501022.6204
   -706824.21144   -550771.20944                  21065930.5114   21065931.1084
  -1683298.79244  -1311659.64644                  23017930.2534   23017932.1204
   -332603.50944   -259170.72944                  20098236.8484   20098236.7734
   -555345.53944   -432735.77244                  23248107.3284   23248107.5594
    965922.14144    752667.05744                  21407082.0814   21407083.4684
   -583648.02244   -454788.47644                                  25400519.6034
 96 12  2 23  4  0.0000000  0  7G27G19G31G18G 3G16G 2
  -1534867.72644  -1195998.53544                  23487831.8084   23487833.5184
   -738748.89344   -575647.56644                  21059855.4964   21059856.1274
  -1761303.82744  -1372442.72744                  23003086.1674   23003088.0204
   -343963.76344   -268022.87044                  20096075.0804   20096075.1494
   -576954.75444   -449574.09844                  23243994.8654   23243995.4794
   1019137.56144    794133.61044                  21417208.5664   21417210.0684
   -680524.93044   -530276.70644                                  25382084.4424
 96 12  2 23  4 30.0000000  0  7G27G19G31G18G 3G16G 2
  -1604116.28244  -1249958.40144                  23474654.2644   23474655.8174
   -770482.14644   -600374.75344                  21053816.9154   21053817.4864
  -1839070.97744  -1433040.44344                  22988287.8954   22988289.4674
   -354875.11144   -276525.21344                  20093998.6884   20093998.5694
   -598084.44444   -466038.75644                  23239973.8094   23239974.9944
   1072843.27044    835982.20644                  21427428.3064   21427429.9454
   -777320.27144   -605701.48744                                  25363664.5614
 96 12  2 23  5  0.0000000  0  7G27G19G31G18G 3G16G 2
  -1673289.33944  -1303859.43444                  23461490.9944   23461491.9984
   -802026.68844   -624954.90044                  21047814.0414   21047814.6384
  -1916573.35044  -1493431.84544                  22973540.3584   22973540.9804
   -365329.81544   -284671.72944                  20092009.1694   20092009.2264
   -618716.89544   -482115.96044                  23236047.7044   23236048.2264
   1127066.71644    878234.23844                  21437746.6934   21437748.5204
   -874014.81144   -681047.69644                                  25345263.9224
 96 12  2 23  5 30.0000000  0  7G27G19G31G18G 3G16G 2
  -1742400.59744  -1357712.31944                  23448339.4924   23448341.5284
   -833395.61944   -649398.20644                  21041844.6754   21041845.5514
  -1993796.61644  -1553605.74444                  22958845.3544   22958845.4134
   -375330.19844   -292464.22744                  20090106.0364   20090106.1724
   -638854.41344   -497807.49844                  23232215.7254   23232216.1374
   1181806.21344    920888.38644                  21448163.4154   21448165.2174
   -970608.34944   -756315.23644                  25326882.7314   25326889.2864
 96 12  2 23  6  0.0000000  0  7G27G19G31G18G 3G16G 2
  -1811451.84644  -1411518.44044                  23435199.6284   23435201.5254
   -864593.55444   -673708.26844                  21035907.9334   21035908.9124
  -2070743.67644  -1613564.43244                  22944202.3324   22944203.6664
   -384871.50344   -299899.00344                  20088290.4064   20088290.5074
   -658489.13344   -513107.23944                  23228479.1424   23228479.6344
   1237043.90444    963930.73544                  21458674.6504   21458676.5554
  -1067122.98644   -831521.32144                  25308516.7534   25308523.6264
 96 12  2 23  6 30.0000000  0  7G27G19G31G18G 3G16G 2
  -1880426.35344  -1465264.76044                  23422074.2584   23422075.3354
   -895632.69944   -697894.60244                  21030001.3664   21030002.1074
  -2147393.33244  -1673291.37044                  22929615.9524   22929617.3684
   -393950.44644   -306973.49944                  20086562.8534   20086562.8054
   -677600.40044   -527999.09844                  23224842.2424   23224842.3434
   1292771.54344   1007354.86344                  21469279.1634   21469280.9954
  -1163538.50644   -906650.14544                  25290169.6014   25290172.5574
 96 12  2 23  7  0.0000000  0  7G27G19G31G18G 3G16G 2
  -1949322.51144  -1518950.04844                  23408963.6154   23408965.4064
   -926507.31944   -721952.73344                  21024126.2124   21024126.8734
  -2223752.16644  -1732791.70144                  22915085.0824   22915086.9554
   -402569.25344   -313689.44944                  20084922.6584   20084922.6914
   -696206.82944   -542497.56744                  23221301.8204   23221302.1064
   1348945.15244   1051126.50344                  21479968.9624   21479970.5754
  -1259865.91044   -981710.32344                  25271838.6144   25271844.8814
 96 12  2 23  7 30.0000000  0  7G27G19G31G18G 3G16G 2
  -2018142.95344  -1572576.32444                  23395867.6884   23395869.1164
   -957196.09944   -745866.05244                  21018286.3234   21018287.0954
  -2299826.51244  -1792070.35044                  22900609.1014   22900610.0564
   -410726.18744   -320045.49844                  20083370.4824   20083370.3734
   -714317.45644   -556609.70444                  23217855.6424   23217855.9674
   1405552.99044   1095236.49544                  21490741.1724   21490742.7514
  -1356133.04244  -1056723.50544                                  25253520.1414
 96 12  2 23  8  0.0000000  0  7G27G19G31G18G 3G16G 2
  -2086855.16544  -1626118.26844                  23382792.0754   23382793.8874
   -987675.15744   -769615.95444                  21012486.3284   21012487.0724
  -2375607.45844  -1851120.36944                  22886188.5894   22886189.3074
   -418400.70744   -326025.63744                  20081910.1444   20081910.0184
   -731902.76244   -570312.49344                  23214509.3634   23214510.5154
   1462621.15144   1139705.18744                  21501600.7744   21501602.0484
  -1452323.61444  -1131677.16544                  25235215.9264   25235219.6164
 96 12  2 23  8 30.0000000  0  7G27G19G31G18G 3G16G 2
  -2155467.76444  -1679582.58544                  23369735.5854   23369736.6634
  -1017939.44844   -793198.50244                  21006727.2384   21006728.0294
  -2451097.44944  -1909943.67244                  22871823.1104   22871824.1124
   -425601.00844   -331636.25544                  20080539.8584   20080539.8504
   -748970.95244   -583612.33944                  23211260.9394   23211261.2154
   1520174.66944   1184552.07544                  21512552.7644   21512554.0574
  -1548418.99644  -1206556.58144                  25216928.9974   25216930.3654
 96 12  2 23  9  0.0000000  0  7G27G19G31G18G 3G16G 2
  -2224040.59344  -1733015.92244                  23356686.6674   23356688.1444
  -1048014.07144   -816633.25444                  21001004.2464   21001004.8114
  -2526336.09544  -1968571.12444                  22857505.5764   22857506.0354
   -432367.05244   -336908.49044                  20079252.3514   20079252.2914
   -765576.42144   -596551.61744                  23208100.8814   23208101.7004
   1578179.92644   1229750.96644                  21523590.8574   21523592.2934
  -1644465.82444  -1281398.17144                  25198651.6854   25198651.6764
 96 12  2 23  9 30.0000000  0  7G27G19G31G18G 3G16G 2
  -2292560.71844  -1786408.17144                  23343647.7694   23343649.5874
  -1077900.46444   -839921.33744                  20995317.1034   20995317.6824
  -2601303.79444  -2026987.43944                  22843239.7044   22843240.2544
   -438695.26244   -341839.55544                  20078048.2264   20078048.1614
   -781696.21644   -609112.45744                  23205033.6664   23205034.1864
   1636669.30344   1275327.09844                  21534720.9024   21534722.4764
  -1740439.07944  -1356182.46544                  25180388.9814   25180393.7404
 96 12  2 23 10  0.0000000  0  7G27G19G31G18G 3G16G 2
  -2361012.63744  -1839747.26744                  23330621.5674   23330623.4054
  -1107598.82744   -863062.89844                  20989665.5354   20989666.2994
  -2675982.82644  -2085178.82244                  22829028.7124   22829029.2734
   -444581.67344   -346426.36244                  20076928.0214   20076928.0854
   -797320.95344   -621287.53744                  23202060.3484   23202061.0964
   1695654.09344   1321289.26944                  21545945.2324   21545947.2184
  -1836291.46544  -1430872.52744                  25162148.8444   25162150.6964
 96 12  2 23 10 30.0000000  0  7G16G27G19G31G18G 3G 2
   1755109.38144   1367618.06444                  21557259.2834   21557260.9394
  -2429399.83344  -1893035.93944                  23317607.8924   23317609.5334
  -1137095.82444   -886047.55044                  20984052.4514   20984053.1044
  -2750360.43644  -2143135.32744                  22814875.0924   22814875.5984
   -450020.00744   -350664.01744                  20075893.0244   20075892.9214
   -812464.67544   -633087.79744                  23199178.6014   23199178.5284
  -1932021.62544  -1505467.35744                                  25143918.7534
 96 12  2 23 11  0.0000000  0  6G16G27G19G31G18G 3
   1815015.17044   1414297.88944                  21568659.1394   21568660.6574
  -2497694.72544  -1946252.69144                  23304611.6604   23304613.9274
  -1166382.98544   -908868.69144                  20978479.2884   20978480.0494
  -2824419.75244  -2200843.82044                  22800781.9164   22800782.7194
   -454992.99544   -354539.06444                  20074946.6514   20074946.6244
   -827120.88944   -644508.19044                  23196389.2384   23196389.9964
 96 12  2 23 11 30.0000000  0  7G16G27G19G31G18G 3G 2
   1875400.04844   1461351.03244                  21580150.0074   21580151.2744
  -2565843.68744  -1999355.72944                  23291643.4034   23291644.7194
  -1195435.17544   -931506.73444                  20972950.9114   20972951.4494
  -2898124.70644  -2258276.18344                  22786756.0834   22786756.4984
   -459458.40144   -358018.59644                  20074097.1144   20074096.8954
   -841247.84544   -655516.17744                  23193700.8354   23193701.8964
        -0.58854         0.40754                  25107579.9564   25107585.3484
 96 12  2 23 12  0.0000000  0  7G16G27G19G31G18G 3G 2
   1936220.01144   1508743.21044                  21591723.3794   21591725.4334
  -2633888.52644  -2052377.63444                  23278694.7484   23278695.8324
  -1224280.51144   -953983.59544                  20967461.6264   20967462.3614
  -2971503.29344  -2315454.24244                  22772792.7184   22772793.1774
   -463435.16644   -361117.36844                  20073340.4694   20073340.1834
   -854880.30244   -666138.83144                  23191106.9744   23191107.0224
    -95296.61644    -74256.10944                  25089445.7954   25089450.2474
 96 12  2 23 12 30.0000000  0  7G16G27G19G31G18G 3G 2
   1997445.99044   1556451.76544                  21603374.5754   21603376.7944
  -2701867.94844  -2105348.55344                  23265758.3654   23265759.9844
  -1252954.83844   -976327.20244                  20962005.1084   20962005.7434
  -3044576.69444  -2372394.48944                  22758887.5364   22758887.5934
   -466951.98744   -363857.74344                  20072671.2254   20072671.0104
   -868033.86844   -676388.31344                  23188604.3974   23188603.9564
   -190503.91644   -148443.48644                  25071328.5224   25071332.4784
 96 12  2 23 13  0.0000000  0  7G16G27G19G31G18G 3G 2
   2059107.35944   1604499.58544                  21615108.5034   21615110.0264
  -2769766.25444  -2158256.27744                  23252837.7834   23252839.9944
  -1281461.97644   -998540.53344                  20956580.3194   20956580.9554
  -3117331.90344  -2429086.79944                  22745042.3904   22745042.9184
   -470001.90144   -366234.29244                  20072090.7764   20072090.6944
   -880679.47144   -686241.98344                  23186197.3134   23186198.2934
   -285607.96244   -222550.39744                  25053230.5654   25053233.5404
 96 12  2 23 13 30.0000000  0  7G16G27G19G31G18G 3G 2
   2121217.02144   1652896.71944                  21626927.5204   21626928.6784
  -2837596.44244  -2211110.90444                  23239930.3694   23239931.3764
  -1309803.65044  -1020624.93044                  20951187.2404   20951187.9334
  -3189775.41644  -2485536.23944                  22731256.7414   22731256.7954
   -472591.47444   -368252.13244                  20071597.8764   20071597.8494
   -892801.67444   -695687.82544                  23183890.2414   23183891.3034
   -380601.48944   -296571.15044                  25035153.8044   25035157.8644
 96 12  2 23 14  0.0000000  0  7G16G27G19G31G18G 3G 2
   2183781.53744   1701648.27944                  21638832.9954   21638834.2924
  -2905351.61544  -2263907.07744                  23227036.9294   23227037.9974
  -1337968.73444  -1042571.72844                  20945827.5714   20945828.1124
  -3261906.49044  -2541742.22544                  22717530.7184   22717531.2414
   -474722.58444   -369912.72544                  20071192.4264   20071192.3834
   -904389.02744   -704716.90144                  23181685.2674   23181686.2174
   -475466.75044   -370492.00244                  25017101.3964   25017104.9644
 96 12  2 23 14 30.0000000  0  7G16G27G19G31G18G 3G 2
   2246785.65444   1750742.38644                  21650822.3934   21650823.6884
  -2973028.90944  -2316642.57844                  23214158.1364   23214159.5094
  -1365963.76044  -1064386.01344                  20940500.3124   20940500.8994
  -3333735.95644  -2597713.19044                  22703862.0854   22703862.6244
   -476418.98144   -371234.58644                  20070869.5574   20070869.3904
   -915449.96144   -713335.77744                  23179580.8144   23179581.0154
   -570214.51644   -444321.25744                  24999071.4064   24999077.1944
 96 12  2 23 15  0.0000000  0  7G27G19G31G18G 3G16G 2
  -3040615.15644  -2369307.15244                  23201296.9884   23201298.6744
  -1393770.88044  -1086053.88044                  20935208.6204   20935209.3324
  -3405260.41544  -2653446.49644                  22690251.4674   22690252.0744
   -477671.22344   -372210.35244                  20070631.2534   20070631.1564
   -925979.96444   -721540.93444                  23177577.1494   23177577.5534
   2310221.51344   1800172.91644                  21662893.8974   21662895.6464
   -664847.48844   -518061.06544                  24981062.9884   24981068.3874
 96 12  2 23 15 30.0000000  0  7G27G19G31G18G 3G16G 2
  -3108126.68344  -2421913.49544                  23188450.0014   23188451.4474
  -1421389.12944  -1107574.57644                  20929953.1144   20929953.7354
  -3476476.02744  -2708939.13644                  22676699.3044   22676700.2804
   -478477.46944   -372838.58644                  20070477.7164   20070477.7734
   -935989.04744   -729340.18944                  23175672.2254   23175672.7434
   2374072.63344   1849927.03244                  21675044.3054   21675046.5074
   -759360.16344   -591707.10544                  24963077.4024   24963082.0974
 96 12  2 23 16  0.0000000  0  7G27G19G31G18G 3G16G 2
  -3175579.36444  -2474473.99744                  23175614.1114   23175615.0224
  -1448833.25744  -1128959.59244                  20924730.7184   20924731.3404
  -3547376.99944  -2764186.61444                  22663206.9424   22663206.8664
   -478834.16544   -373116.52044                  20070410.0264   20070409.9544
   -945483.56644   -736738.48644                  23173865.0374   23173866.3554
   2438312.48844   1899984.05744                  21687268.7974   21687270.6004
   -853772.74944   -665275.16944                  24945111.5394   24945115.3274
 96 12  2 23 16 30.0000000  0  7G27G19G31G18G 3G16G 2
  -3242991.46544  -2527002.87144                  23162786.0674   23162787.0794
  -1476098.80944  -1150205.46544                  20919542.1894   20919542.7984
  -3617943.89344  -2819173.76644                  22649778.6204   22649779.1024
   -478728.71944   -373034.34844                  20070430.0564   20070429.7444
   -954460.67744   -743733.61644                  23172157.0714   23172157.2994
   2502932.54744   1950337.34144                  21699565.7274   21699567.0054
   -948106.44844   -738781.74244                  24927160.0254   24927163.3014
 96 12  2 23 17  0.0000000  0  7G27G19G31G18G 3G16G 2
  -3310359.25044  -2579497.21544                  23149966.3104   23149967.8424
  -1503187.06844  -1171313.18744                  20914387.3344   20914388.0564
  -3688155.98244  -2873884.43944                  22636418.0854   22636417.9774
   -478124.35044   -372563.40444                  20070545.0674   20070544.8604
   -962901.25144   -750310.64944                  23170551.1374   23170551.3934
   2567950.77544   2001000.88544                  21711938.0594   21711939.7754
  -1042344.52744   -812213.81044                  24909226.9574   24909231.9794
 96 12  2 23 17 30.0000000  0  7G27G19G31G18G 3G16G 2
  -3377703.17244  -2631972.96044                  23137151.2764   23137152.3124
  -1530127.75844  -1192305.91844                  20909260.7354   20909261.4354
  -3758024.61544  -2928327.49444                  22623122.7134   22623122.9764
   -477031.60344   -371711.90344                  20070752.9414   20070752.9764
   -970825.11444   -756485.05944                  23169043.0774   23169043.6614
   2633364.74844   2051972.80544                  21724385.7714   21724387.6924
  -1136487.50544   -885571.77144                  24891312.7244   24891315.4704
 96 12  2 23 18  0.0000000  0  7G27G19G31G18G 3G16G 2
  -3445008.83944  -2684418.89644                  23124343.3534   23124343.9854
  -1556914.52744  -1213178.71444                  20904163.4364   20904164.0714
  -3827538.41144  -2982494.04744                  22609894.4974   22609895.1754
   -475453.27644   -370482.03044                  20071053.2504   20071053.1734
   -978227.16844   -762252.85244                  23167634.4904   23167634.2864
   2699189.88744   2103265.11944                  21736911.8674   21736913.8184
  -1230547.25444   -958864.90244                  24873413.8594   24873416.8004
 96 12  2 23 18 30.0000000  0  7G27G19G31G18G 3G16G 2
  -3512257.29144  -2736820.24044                  23111546.1744   23111547.3394
  -1583535.96844  -1233922.68344                  20899097.4164   20899098.2004
  -3896695.08044  -3036382.32644                  22596734.1174   22596735.1064
   -473379.42644   -368866.03544                  20071447.9144   20071447.6894
   -985113.20144   -767618.56144                  23166323.9624   23166324.1184
   2765442.18544   2154890.28144                  21749519.3714   21749520.8654
  -1324499.29644  -1032074.07444                  24855534.7584   24855538.7154
 96 12  2 23 19  0.0000000  0  7G27G19G31G18G 3G16G 2
  -3579428.57444  -2789161.45244                  23098764.1604   23098764.9254
  -1609997.10444  -1254541.73444                  20894062.1074   20894062.6674
  -3965505.15744  -3090000.52244                  22583639.8184   22583639.6334
   -470810.55344   -366864.31044                  20071936.6294   20071936.6674
   -991481.76944   -772581.06744                  23165112.1774   23165113.2314
   2832129.18744   2206854.17144                  21762209.5404   21762210.6704
  -1418321.26244  -1105181.91244                  24837680.6654   24837684.3054
 96 12  2 23 19 30.0000000  0  7G27G19G31G18G 3G16G 2
  -3646514.47644  -2841436.13644                  23085998.1314   23085999.2014
  -1636268.74344  -1275013.12844                  20889062.8534   20889063.3724
  -4033959.85344  -3143341.80344                  22570613.2874   22570613.9494
   -467760.36144   -364487.52944                  20072516.9844   20072517.0604
   -997331.13044   -777138.95644                  23163999.0824   23163999.0024
   2899257.58844   2259162.00944                  21774983.6114   21774985.0314
  -1511998.64144  -1178177.07944                  24819854.3284   24819856.5214
 96 12  2 23 20  0.0000000  0  7G27G19G31G18G 3G16G 2
  -3713487.97944  -2893623.24144                  23073253.4274   23073253.9274
  -1662319.28544  -1295312.23844                  20884105.5004   20884106.0664
  -4102044.75144  -3196394.91744                  22557657.5574   22557657.8054
   -464196.64144   -361710.59944                  20073195.1844   20073195.1744
  -1002640.85044   -781276.35844                  23162988.5994   23162988.8434
   2966825.94044   2311812.66544                  21787841.5944   21787842.9454
  -1605507.80244  -1251041.19544                  24802060.0734   24802064.7744
 96 12  2 23 20 30.0000000  0  7G27G19G31G18G 3G16G 2
  -3780363.34044  -2945733.86844                  23060527.3244   23060528.7084
  -1688163.65644  -1315450.69344                  20879187.4844   20879188.0314
  -4169784.89644  -3249179.40444                  22544767.0804   22544767.0534
   -460116.01444   -358530.88644                  20073971.8914   20073971.7144
  -1007416.41144   -784997.54444                  23162079.8274   23162079.8434
   3034812.61044   2364789.28144                  21800779.1594   21800780.6264
  -1698845.42944  -1323771.66744                  24784298.3024   24784301.4764
 96 12  2 23 21  0.0000000  0  7G27G19G31G18G 3G16G 2
  -3847151.30844  -2997776.39444                  23047817.8354   23047819.2614
  -1713807.37344  -1335432.79444                  20874307.7064   20874308.2434
  -4237180.88744  -3301695.70844                  22531941.9964   22531942.4364
   -455530.58044   -354957.81844                  20074844.3944   20074844.1874
  -1011659.11144   -788303.51844                  23161272.4274   23161272.8284
   3103210.37144   2418086.22844                  21813794.5404   21813796.4374
  -1792021.90044  -1396376.53344                  24766567.7004   24766571.5734
 96 12  2 23 21 30.0000000  0  7G27G19G31G18G 3G16G 2
  -3913863.42144  -3049759.81044                  23035123.0094   23035123.8294
  -1739256.59644  -1355263.34344                  20869464.7474   20869465.3254
  -4304229.07344  -3353941.00244                  22519183.1264   22519183.7874
   -450447.78344   -350997.19444                  20075811.7534   20075811.5184
  -1015376.02144   -791199.78544                  23160565.0884   23160564.8534
   3172003.73844   2471691.44344                  21826885.4284   21826887.2474
  -1885042.71144  -1468860.14244                  24748866.3604   24748869.4804
 96 12  2 23 22  0.0000000  0  7G27G19G31G18G 3G16G 2
  -3980482.59444  -3101670.78444                  23022445.8734   23022447.5614
  -1764515.88444  -1374945.88944                  20864658.1284   20864658.6884
  -4370915.81444  -3405904.65944                  22506493.1574   22506493.3784
   -444846.57244   -346632.61044                  20076877.5774   20076877.4854
  -1018557.23944   -793678.62744                  23159959.7174   23159959.7614
   3241196.55244   2525607.91344                  21840052.4784   21840054.4544
  -1977897.74344  -1541214.54444                  24731196.1094   24731199.2574
 96 12  2 23 22 30.0000000  0  7G27G19G31G18G 3G16G 2
  -4047018.03444  -3153516.54644                  23009784.5254   23009785.7774
  -1789589.69044  -1394483.90644                  20859886.6884   20859887.1734
  -4437223.86444  -3457573.19744                  22493875.1594   22493874.8524
   -438755.75944   -341886.51744                  20078036.4354   20078036.4214
  -1021212.84044   -795747.90744                  23159454.2434   23159454.4364
   3310796.51744   2579841.64144                  21853296.8394   21853298.6694
  -2070596.91944  -1613447.51844                  24713555.4664   24713558.5934
 96 12  2 23 23  0.0000000  0  7G27G19G31G18G 3G16G 2
  -4113464.10244  -3205292.64744                  22997140.2214   22997141.4884
  -1814472.57044  -1413873.14644                  20855151.7504   20855152.2174
  -4503122.93644  -3508923.07244                  22481334.5564   22481335.1674
   -432187.59944   -336768.46744                  20079286.4654   20079286.2874
  -1023350.73144   -797413.76944                  23159047.3544   23159047.6404
   3380799.10844   2634389.10944                  21866617.7704   21866619.6164
  -2163144.82944  -1685562.62044                  24695944.1194   24695947.3014
 96 12  2 23 23 30.0000000  0  7G27G19G31G18G 3G16G 2
  -4179818.25844  -3256997.13644                  22984513.4184   22984514.5004
  -1839163.74444  -1433113.00544                  20850453.1134   20850453.7404
  -4568607.98044  -3559950.32444                  22468873.1684   22468873.8004
   -425145.14944   -331280.84144                  20080626.6574   20080626.4254
  -1024972.29844   -798677.30644                  23158739.2374   23158739.6434
   3451196.10644   2689243.90044                  21880014.2484   21880015.6274
  -2255553.63044  -1757569.31344                  24678359.3954   24678361.7894
 96 12  2 23 24  0.0000000  0  7G27G19G31G18G 3G16G 2
  -4246091.32644  -3308638.43244                  22971901.8084   22971903.2454
  -1863655.04244  -1452197.11544                  20845792.4314   20845792.9734
  -4633682.39844  -3610657.62744                  22456489.8944   22456490.4844
   -417636.09544   -325429.62944                  20082055.4544   20082055.1974
  -1026085.45644   -799544.68044                  23158527.1334   23158527.5584
   3521980.17144   2744400.29944                  21893484.1124   21893485.6534
  -2347843.18044  -1829483.10944                  24660797.4474   24660801.1384
 96 12  2 23 24 30.0000000  0  7G27G19G31G18G 3G16G 2
  -4312293.24844  -3360224.30844                  22959303.9724   22959305.4104
  -1887945.86244  -1471125.00744                  20841169.9784   20841170.5764
  -4698350.62344  -3661048.41144                  22444184.1574   22444184.0764
   -409667.86944   -319220.61944                  20083571.9084   20083571.6384
  -1026688.57444   -800014.61944                  23158412.5034   23158412.1734
   3593144.53244   2799853.03444                  21907026.1454   21907027.9664
  -2440022.49844  -1901311.00044                  24643256.3544   24643259.1544
 96 12  2 23 25  0.0000000  0  7G27G19G31G18G 3G16G 2
  -4378415.74244  -3411748.28244                  22946721.4724   22946723.1894
  -1912031.78444  -1489893.23944                  20836586.6704   20836587.1944
  -4762616.34644  -3711125.54644                  22431954.4814   22431954.2454
   -401215.82244   -312634.60644                  20085180.1774   20085180.0164
  -1026755.12344   -800066.45844                  23158399.8094   23158399.7534
   3664693.87344   2855605.76444                  21920641.3804   21920643.5984
  -2532084.22244  -1973047.30244                  24625737.1554   24625739.2134
 96 12  2 23 25 30.0000000  0  7G27G19G31G18G 3G16G 2
  -4444479.30044  -3463226.33844                  22934149.8814   22934150.9684
  -1935918.81144  -1508506.49144                  20832040.9924   20832041.6244
  -4826511.40844  -3760913.86544                  22419795.5894   22419795.3574
   -392282.44044   -305673.52744                  20086880.0234   20086880.0914
  -1026287.66744   -799702.20044                  23158488.5214   23158488.7374
   3736617.78344   2911650.36244                  21934328.0074   21934329.8954
  -2624027.78644  -2044691.50544                  24608240.7624   24608243.9774
 96 12  2 23 26  0.0000000  0  7G27G19G31G18G 3G16G 2
  -4510489.53744  -3514662.85944                  22921588.5044   22921589.5534
  -1959611.42144  -1526968.24744                  20827532.4774   20827532.9894
  -4890021.64844  -3810402.32744                  22407709.9234   22407710.3114
   -382861.58044   -298332.59544                  20088672.9384   20088672.8624
  -1025275.09344   -798913.15544                  23158681.4464   23158682.1274
   3808911.39844   2967983.03944                  21948085.1644   21948086.5714
  -2715826.92144  -2116223.20044                  24590772.1774   24590775.2464
 96 12  2 23 26 30.0000000  0  7G27G19G31G18G 3G16G 2
  -4576415.59244  -3566033.79544                  22909043.3284   22909044.3354
  -1983109.35344  -1545278.30944                  20823060.9524   20823061.5244
  -4953119.69744  -3859569.59844                  22395702.8274   22395703.1654
   -372930.65844   -290594.21444                  20090562.7724   20090562.4364
  -1023682.22544   -797671.93944                  23158984.5854   23158984.6624
   3881592.09444   3024617.32844                  21961916.2134   21961917.1474
  -2807441.56844  -2187611.13244                  24573338.5654   24573341.7184
 96 12  2 23 27  0.0000000  0  7G27G19G31G18G 3G16G 2
  -4642261.51944  -3617342.27444                  22896513.1984   22896514.5924
  -2006419.91944  -1563442.37044                  20818625.0054   20818625.6934
  -5015797.89944  -3908409.72244                  22383775.7124   22383776.1904
   -362482.87844   -282453.08944                  20092550.8774   20092550.5654
  -1021517.43944   -795985.06644                  23159396.4734   23159396.5084
   3954643.35844   3081540.37444                  21975817.2194   21975818.6884
  -2898865.11844  -2258850.19044                  24555941.2904   24555943.2264
 96 12  2 23 27 30.0000000  0  7G27G19G31G18G 3G16G 2
  -4708033.15044  -3668592.86444                  22883997.2954   22883997.9304
  -2029556.26244  -1581470.67544                  20814222.3154   20814222.8954
  -5078061.10544  -3956926.47044                  22371927.2164   22371927.5574
   -351527.03244   -273916.07044                  20094635.7474   20094635.6004
  -1018801.84244   -793869.00644                  23159912.9764   23159914.3784
   4028043.48444   3138735.26444                  21989784.5154   21989786.5424
  -2990094.99744  -2329938.31644                  24538580.6864   24538583.5684
 96 12  2 23 28  0.0000000  0  7G27G19G31G18G 3G16G 2
  -4773714.75944  -3719773.30944                  22871498.3644   22871499.3974
  -2052531.94444  -1599373.78944                  20809850.3374   20809850.9474
  -5139910.09144  -4005120.44744                  22360157.2984   22360157.6044
   -340061.97044   -264982.25444                  20096817.3474   20096817.2184
  -1015544.34944   -791330.67744                  23160532.8714   23160532.5574
   4101784.04644   3196195.43444                  22003816.8324   22003818.6714
  -3081145.10744  -2400886.38344                  24521254.1334   24521256.5814
 96 12  2 23 28 30.0000000  0  7G27G19G31G18G 3G16G 2
  -4839305.30244  -3770882.79944                  22859017.0504   22859017.7204
  -2075340.47344  -1617146.65544                  20805509.9724   20805510.3784
  -5201366.06444  -4053008.18344                  22348462.4384   22348463.2824
   -328085.19944   -255649.70844                  20099096.4534   20099096.2054
  -1011762.09144   -788383.44744                  23161252.7914   23161252.8634
   4175867.98244   3253923.16744                  22017914.5724   22017916.2134
  -3172030.93744  -2471706.42844                  24503959.1394   24503962.3434
 96 12  2 23 29  0.0000000  0  7G27G19G31G18G 3G16G 2
  -4904830.52644  -3821941.39644                  22846547.9144   22846548.4014
  -2097976.17044  -1634784.85144                  20801202.5504   20801203.1234
  -5262454.24144  -4100609.32944                  22336838.2014   22336838.4024
   -315609.58244   -245928.45144                  20101470.5984   20101470.3774
  -1007477.31144   -785044.64544                  23162068.1274   23162067.4224
   4250285.46444   3311910.79344                  22032075.8734   22032077.0334
  -3262770.96544  -2542412.87944                  24486691.8554   24486695.4584
 96 12  2 23 29 30.0000000  0  7G27G19G31G18G 3G16G 2
  -4970293.55544  -3872951.52344                  22834090.6004   22834091.4754
  -2120435.03744  -1652285.25544                  20796928.8734   20796929.4164
  -5323185.19644  -4147932.11044                  22325281.8324   22325281.4974
   -302647.62444   -235828.22744                  20103937.1674   20103936.9104
  -1002685.06544   -781310.39044                  23162979.9304   23162979.2904
   4325055.45644   3370173.10544                  22046304.2504   22046305.8284
  -3353371.20644  -2613010.39444                  24469451.2204   24469454.6534
 96 12  2 23 30  0.0000000  0  7G27G19G31G18G 3G16G 2
  -5035679.77344  -3923901.79544                  22821647.8024   22821649.0234
  -2142689.84544  -1669626.65444                  20792693.6124   20792694.1654
  -5383520.80344  -4194946.83344                  22313800.3324   22313800.6184
   -289183.97044   -225337.07244                  20106499.2314   20106498.9234
   -997353.76544   -777156.09444                  23163994.5904   23163994.2244
   4400209.10244   3428734.37244                  22060605.4724   22060607.0234
  -3443813.86344  -2683485.11544                  24452240.5864   24452242.6074
 96 12  2 23 30 30.0000000  0  7G27G19G31G18G 3G16G 2
  -5101032.96444  -3974826.33144                  22809211.6864   22809212.6354
  -2164755.94844  -1686821.01144                  20788494.7164   20788495.2394
  -5443456.65044  -4241650.05044                  22302394.6414   22302395.1514
   -275242.63144   -214473.69544                  20109152.2344   20109151.8754
   -991484.32844   -772582.49144                  23165111.2464   23165111.5004
   4475731.00144   3487582.58744                  22074976.7624   22074978.4744
  -3534102.56744  -2753839.84844                  24435058.8744   24435060.2124
 96 12  2 23 31  0.0000000  0  7G27G19G31G18G 3G16G 2
  -5166332.60044  -4025709.14044                  22796785.6504   22796786.8204
  -2186636.83144  -1703871.03944                  20784330.9024   20784331.4704
  -5502964.81544  -4288020.01844                  22291070.2934   22291070.3424
   -260817.85344   -203233.61244                  20111897.1444   20111896.8364
   -985054.75244   -767572.41444                  23166334.6834   23166334.3224
   4551629.71144   3546724.42544                  22089419.7774   22089421.6424
  -3624228.05044  -2824067.39144                  24417908.3384   24417911.8014
 96 12  2 23 31 30.0000000  0  7G27G19G31G18G 3G16G 2
  -5231555.68644  -4076532.29444                  22784373.9394   22784375.0174
  -2208342.87744  -1720784.83344                  20780200.4234   20780201.0584
  -5562017.84444  -4334035.32944                  22279832.8704   22279833.2834
   -245900.95544   -191610.05744                  20114735.5784   20114735.4814
   -978052.93044   -762116.43244                  23167667.2424   23167667.7244
   4627904.54344   3606159.34444                  22103934.5984   22103936.1524
  -3714183.43044  -2894162.37544                  24400790.4204   24400793.3254
 96 12  2 23 32  0.0000000  0  7G27G19G31G18G 3G16G 2
  -5296710.62144  -4127302.32844                  22771975.4584   22771976.5594
  -2229888.65844  -1737573.74344                  20776100.4204   20776100.9884
  -5620607.51344  -4379689.57544                  22268683.8054   22268683.6134
   -230496.32744   -179606.45344                  20117667.0234   20117666.8174
   -970487.30744   -756221.12444                  23169106.9564   23169107.8314
   4704519.08644   3665858.96944                  22118513.7364   22118515.4504
  -3803976.84444  -2964131.16044                  24383703.4174   24383706.3174
 96 12  2 23 32 30.0000000  0  7G27G19G31G18G 3G16G 2
  -5361783.49044  -4178008.41144                  22759592.5634   22759593.8284
  -2251268.32244  -1754233.21544                  20772031.9604   20772032.5604
  -5678733.88844  -4424982.81244                  22257622.7284   22257622.6114
   -214587.77144   -167210.17544                  20120694.5084   20120694.2634
   -962359.38644   -749887.66344                  23170653.4994   23170654.0244
   4781464.36644   3725816.31844                  22133155.9994   22133157.8294
  -3893609.11044  -3033974.35644                  24366646.4914   24366650.2984
 96 12  2 23 33  0.0000000  0  7G27G19G31G18G 3G16G 2
  -5426758.39944  -4228638.16144                  22747228.1034   22747229.0824
  -2272476.44344  -1770759.01644                  20767996.1584   20767996.7374
  -5736414.09344  -4469928.37844                  22246646.3594   22246646.4254
   -198173.88244   -154420.13344                  20123817.9354   20123817.6374
   -953692.78844   -743134.46044                  23172302.8394   23172303.2944
   4858724.05344   3786018.65644                  22147857.9714   22147859.7114
  -3983093.81844  -3103702.58544                  24349617.8014   24349621.3674
 96 12  2 23 33 30.0000000  0  7G27G19G31G18G 3G16G 2
  -5491657.54744  -4279208.88244                  22734878.0434   22734878.6114
  -2293503.98444  -1787144.10644                  20763994.7674   20763995.1684
  -5793657.40944  -4514533.51844                  22235753.3394   22235753.3244
   -181258.98244   -141239.69144                  20127036.4764   20127036.2664
   -944506.00044   -735975.90644                  23174050.8224   23174051.1134
   4936270.57344   3846444.50444                  22162614.5204   22162616.7634
  -4072431.07944  -3173315.91444                  24332618.1154   24332621.9034
 96 12  2 23 34  0.0000000  0  7G27G19G31G18G 3G16G 2
  -5556470.89144  -4329712.73844                  22722544.5144   22722545.4604
  -2314327.19844  -1803369.97644                  20760032.2284   20760032.7584
  -5850454.91244  -4558791.27144                  22224945.0934   22224945.0654
   -163832.56144   -127660.66244                  20130352.6684   20130352.5164
   -934791.65544   -728406.27244                  23175899.4654   23175899.5494
   5014112.81044   3907100.77944                  22177427.4804   22177429.4544
  -4161602.27944  -3242799.85144                  24315649.4144   24315651.4084
 96 12  2 23 34 30.0000000  0  7G27G19G31G18G 3G16G 2
  -5621183.21144  -4380137.86344                  22710230.2524   22710231.0844
  -2334939.65544  -1819431.62244                  20756109.8954   20756110.3114
  -5906817.35044  -4602710.00944                  22214219.7164   22214219.6024
   -145888.58844   -113678.34744                  20133767.4634   20133767.1564
   -924553.42544   -720428.41444                  23177847.8324   23177848.6404
   5092268.76544   3968001.51144                  22192300.0344   22192301.7704
  -4250606.76444  -3312153.90744                  24298712.3904   24298713.8434
 96 12  2 23 35  0.0000000  0  7G27G19G31G18G 3G16G 2
  -5685787.47244  -4430478.78944                  22697936.2534   22697937.2054
  -2355342.59644  -1835330.01144                  20752227.3814   20752227.9254
  -5962740.84144  -4646286.70744                  22203577.4784   22203577.3694
   -127428.06444    -99293.52344                  20137280.2564   20137279.9894
   -913786.24044   -712038.39644                  23179896.6534   23179897.1784
   5170750.71244   4029156.26744                  22207234.7074   22207237.0004
  -4339428.14744  -3381365.28244                  24281809.9894   24281812.6924
 96 12  2 23 35 30.0000000  0  8G27G19G31G18G 3G16G 2G10
  -5750275.54844  -4480729.18144                  22685664.5624   22685665.5384
  -2375540.98544  -1851069.00844                  20748383.6974   20748384.1114
  -6018198.82344  -4689500.68044                  22193024.0664   22193024.5364
   -108440.49844    -84498.01644                  20140893.4754   20140893.4764
   -902461.44444   -703213.86844                  23182051.9384   23182052.1934
   5249582.65844   4090583.74744                  22222235.9944   22222238.0034
  -4428044.59844  -3450416.97344                  24264946.9334   24264950.1944
        -0.50954                                                  24232264.0844
 96 12  2 23 36  0.0000000  0  8G27G19G31G18G 3G16G 2G10
  -5814693.50644  -4530924.94744                  22673406.3034   22673406.9524
  -2395588.28444  -1866690.27144                  20744568.5894   20744569.0614
  -6073223.07944  -4732376.67344                  22182553.7324   22182553.6064
    -88968.85844    -69325.30744                  20144598.9084   20144598.8344
   -890613.25144   -693981.49944                  23184306.4424   23184306.3524
   5328739.19744   4152264.15744                  22237299.0514   22237300.7364
  -4516512.28444  -3519352.75944                  24248112.1184   24248114.9004
    -56187.93844                                                  24221572.0774
 96 12  2 23 36 30.0000000  0  7G27G19G31G18G 3G16G 2
  -5879039.81844  -4581064.88344                  22661161.4504   22661162.2954
  -2415480.23744  -1882190.48644                  20740783.3484   20740783.9214
  -6127797.24444  -4774901.94944                  22172168.6754   22172168.3244
    -69007.99444    -53771.38944                  20148397.3984   20148397.0974
   -878221.73244   -684325.76444                  23186664.5354   23186664.9234
   5408228.07444   4214203.52944                  22252425.0744   22252426.6954
  -4604824.80544  -3588167.65144                  24231306.7594   24231309.2344
 96 12  2 23 37  0.0000000  0  7G27G19G31G18G 3G16G 2
  -5943336.49244  -4631166.13844                  22648926.1254   22648927.0964
  -2435216.45544  -1897569.35044                  20737027.7454   20737028.3244
  -6181913.20144  -4817070.18044                  22161870.5004   22161870.2294
    -48572.46544    -37847.60344                  20152286.0314   20152285.7184
   -865289.00744   -674248.29344                  23189125.4704   23189125.8754
   5488036.00144   4276391.50944                  22267611.9994   22267613.9184
  -4692982.63944  -3656861.96944                  24214530.7064   24214532.1944
 96 12  2 23 37 30.0000000  0  7G27G19G31G18G 3G16G 2
  -6007590.28944  -4681233.97744                  22636699.0774   22636700.1904
  -2454790.36444  -1912821.74044                  20733302.9244   20733303.4824
  -6235560.97344  -4858873.59644                  22151661.6834   22151661.6144
    -27648.39644    -21543.13544                  20156267.7344   20156267.6334
   -851809.63144   -663744.87544                  23191690.3544   23191690.2944
   5568154.35344   4338821.37444                  22282858.3044   22282859.7204
  -4780984.73244  -3725434.97044                  24197783.8794   24197787.0124
 96 12  2 23 38  0.0000000  0  8G27G19G31G18G 3G16G 2G10
  -6071768.42444  -4731242.86444                  22624486.3174   22624486.9864
  -2474154.43444  -1927910.61644                  20729618.0514   20729618.5844
  -6288722.51544  -4900298.12444                  22141545.6794   22141545.2694
     -6208.48144     -4836.70544                  20160347.6544   20160347.6184
   -837767.50144   -652802.94444                  23194362.4504   23194362.9044
   5648594.01844   4401501.62144                  22298165.4284   22298167.1644
  -4868807.55944  -3793868.29344                  24181071.5744   24181074.1434
        -0.75154                                                  24179630.7214
 96 12  2 23 38 30.0000000  0  8G27G19G31G18G 3G16G 2G10
  -6135870.00344  -4781192.10044                  22612288.0964   22612288.6094
  -2493312.94444  -1942839.31844                  20725972.2964   20725972.8014
  -6341423.99544  -4941364.16844                  22131516.8624   22131516.3424
     15742.15144     12267.68344                  20164524.7244   20164524.5604
   -823182.26544   -641437.82044                  23197137.8514   23197138.1664
   5729325.88444   4464409.55044                  22313528.1594   22313529.7884
  -4956443.45644  -3862155.94444                  24164395.1564   24164398.3124
    -53848.40744                                                  24169383.6224
 96 12  2 23 39  0.0000000  0  8G27G19G31G18G 3G16G 2G10
  -6199883.79044  -4831072.93244                  22600106.7504   22600107.2014
  -2512243.96544  -1957590.75544                  20722369.9134   20722370.3474
  -6393659.96944  -4982067.48544                  22121576.5184   22121576.8594
     38230.17844     29790.81744                  20168804.1994   20168803.8824
   -808060.54744   -629654.67244                  23200015.3794   23200015.9774
   5810357.18644   4527550.80044                  22328948.1344   22328949.2254
  -5043871.01044  -3930281.24344                  24147758.3444   24147761.0994
   -107166.03144                                                  24159237.4404
 96 12  2 23 39 30.0000000  0  8G27G19G31G18G 3G16G 2G10
  -6263801.66644  -4880879.03044                  22587943.5534   22587944.3074
  -2530953.16644  -1972169.34644                  20718809.7714   20718810.2694
  -6445431.88744  -5022409.20644                  22111724.2724   22111724.0964
     61259.88544     47736.04044                  20173186.5694   20173186.3054
   -792398.98444   -617450.84944                  23202995.6644   23202996.1674
   5891684.48344   4590922.70044                  22344424.1454   22344425.8644
  -5131085.69644  -3998240.66144                  24131161.8984   24131162.9194
   -159982.80344                                                  24149186.8494
 96 12  2 23 40  0.0000000  0  8G27G19G31G18G 3G16G 2G10
  -6327616.27344  -4930604.66544                  22575800.0514   22575801.1444
  -2549430.66844  -1986567.39344                  20715293.5544   20715294.0464
  -6496743.71844  -5062392.41444                  22101960.0684   22101960.0344
     84808.63544     66085.71544                  20177667.6764   20177667.6374
   -776192.72844   -604822.58844                  23206079.9014   23206080.0604
   5973319.03744   4654534.02644                  22359958.6084   22359960.1714
  -5218082.52344  -4066030.32644                  24114606.9084   24114608.5554
   -212320.04444                                                  24139227.0594
 96 12  2 23 40 30.0000000  0  8G27G19G31G18G 3G16G 2G10
  -6391340.23444  -4980259.66644                  22563673.7884   22563674.3744
  -2567693.01044  -2000797.78544                  20711818.3474   20711818.7744
  -6547583.98644  -5102008.17244                  22092285.8024   22092285.4014
    108870.90144     84835.53144                  20182246.5394   20182246.4524
   -759430.88444   -591761.41044                  23209269.5904   23209269.1214
   6055263.21744   4718386.62644                  22375551.8254   22375553.4254
  -5304860.35544  -4133649.33544                  24098093.7074   24098096.2804
   -264200.55044                                                  24129354.1914
 96 12  2 23 41  0.0000000  0  8G27G19G31G18G 3G16G 2G10
  -6454987.64444  -5029855.01444                  22551561.9684   22551562.8594
  -2585763.64044  -2014878.78944                  20708379.6114   20708380.1234
  -6597947.85944  -5141252.72144                  22082701.7534   22082701.6474
    133416.32844    103961.83644                  20186917.3824   20186917.1534
   -742117.38844   -578270.35944                  23212564.3934   23212564.7614
   6137514.02044   4782478.14844                  22391203.4994   22391205.3574
  -5391443.03244  -4201116.28544                  24081617.3894   24081620.9164
   -315651.62244                                                  24119563.8564
 96 12  2 23 41 30.0000000  0  8G27G19G31G18G 3G16G 2G10
  -6518547.96944  -5079382.52244                  22539466.9774   22539467.6274
  -2603651.49344  -2028817.37044                  20704975.5344   20704976.0794
  -6647820.94644  -5180114.84044                  22073210.8444   22073210.3514
    158442.22644    123462.53344                  20191679.6604   20191679.4284
   -724233.78544   -564335.06344                  23215967.2174   23215966.6114
   6220079.37044   4846814.77244                  22406915.6754   22406917.3214
  -5477836.59844  -4268435.89544                  24065177.1674   24065180.2804
   -366659.95544                                                  24109857.4154
 96 12  2 23 42  0.0000000  0  8G27G19G31G18G 3G16G 2G10
  -6582028.51644  -5128847.86244                  22527386.8744   22527387.7614
  -2621367.71944  -2042622.21944                  20701604.2704   20701604.8594
  -6697204.37344  -5218595.41044                  22063813.2064   22063813.2474
    183948.10344    143337.24144                  20196533.3454   20196533.0214
   -705793.76844   -549966.21044                  23219476.1344   23219476.7664
   6302944.49244   4911384.98144                  22422684.4264   22422685.9604
  -5564054.34444  -4335618.49844                  24048770.3694   24048773.6164
   -417212.47044                                                  24100237.2834
 96 12  2 23 42 30.0000000  0  8G27G19G31G18G 3G16G 2G10
  -6645447.75944  -5178265.44344                  22515318.4224   22515319.2964
  -2638931.68544  -2056308.42144                  20698262.1144   20698262.6004
  -6746101.77244  -5256697.25644                  22054508.4844   22054508.0184
    209938.45344    163589.45944                  20201479.1674   20201478.8704
   -686811.48244   -535174.80944                  23223088.2434   23223088.8704
   6386071.14644   4976158.99044                  22438502.6644   22438504.9334
  -5650108.38644  -4402673.53944                  24032395.0744   24032398.0244
   -467306.18044                                                  24090705.1884
 96 12  2 23 43  0.0000000  0  8G27G19G31G18G 3G16G 2G10
  -6708796.67644  -5227628.21444                  22503263.5874   22503264.7234
  -2656327.58344  -2069863.66344                  20694951.6694   20694952.1934
  -6794516.14944  -5294422.71544                  22045295.6224   22045295.5354
    236423.36544    184227.05144                  20206518.9864   20206518.7854
   -667296.18044   -519968.08344                  23226802.0864   23226802.0624
   6469451.98344   5041131.06744                  22454369.3564   22454371.9074
  -5735996.47644  -4469599.26044                  24016051.1414   24016053.7444
   -516922.11544                                                  24081263.4984
 96 12  2 23 43 30.0000000  0  8G27G19G31G18G 3G16G 2G10
  -6772063.56544  -5276927.07144                  22491224.4934   22491225.3664
  -2673531.90044  -2083269.62044                  20691677.8524   20691678.4174
  -6842450.01844  -5331773.76244                  22036174.5484   22036173.9614
    263424.60544    205266.97844                  20211657.2144   20211657.0134
   -647236.72344   -504337.34144                  23230619.1414   23230618.7044
   6553084.68044   5106299.41144                  22470284.3184   22470286.9414
  -5821701.67644  -4536382.47444                  23999741.3824   23999744.3864
   -566037.38744                                                  24071917.1314
 96 12  2 23 44  0.0000000  0  8G27G19G31G18G 3G16G 2G10
  -6835257.80544  -5326169.31444                  22479198.9524   22479199.6124
  -2690537.38344  -2096520.64144                  20688441.8034   20688442.2554
  -6889915.77344  -5368760.04244                  22027142.1234   22027141.4864
    290930.09144    226699.82244                  20216891.3074   20216890.9934
   -626639.95544   -488287.90044                  23234538.6634   23234538.2294
   6636959.36544   5171656.30244                  22486245.1814   22486246.8224
  -5907220.69444  -4603020.61444                  23983467.4784   23983469.7834
   -614654.14744                                                  24062665.9544
 96 12  2 23 44 30.0000000  0  8G27G19G31G18G 3G16G 2G10
  -6898376.68544  -5375352.82744                  22467187.7234   22467188.3684
  -2707340.37144  -2109613.87744                  20685244.2924   20685244.6954
  -6936906.52644  -5405376.18944                  22018199.8054   22018199.5034
    318934.55144    248521.47444                  20222220.4234   20222220.0574
   -605500.88544   -471815.89544                  23238561.0544   23238561.2734
   6721086.70344   5237210.06744                  22502254.2594   22502255.4344
  -5992545.93644  -4669507.75344                  23967231.0364   23967233.1374
   -662773.25344                                                  24053509.2794
 96 12  2 23 45  0.0000000  0  8G27G19G31G18G 3G16G 2G10
  -6961416.44144  -5424474.69244                  22455191.7734   22455192.4474
  -2723957.58444  -2122562.35144                  20682082.0654   20682082.6084
  -6983416.17144  -5441617.45044                  22009349.2904   22009349.2944
    347435.65844    270730.12544                  20227644.0174   20227643.6554
   -583831.47044   -454930.63144                  23242684.4814   23242684.7484
   6805478.17044   5302969.63644                  22518313.2534   22518315.1174
  -6077678.07744  -4735844.41644                  23951031.2324   23951032.7804
   -710394.35144                                                  24044447.0644
 96 12  2 23 45 30.0000000  0  8G27G19G31G18G 3G16G 2G10
  -7024384.31744  -5473540.54644                  22443209.5114   22443210.0214
  -2740407.11844  -2135380.16644                  20678951.8374   20678952.4114
  -7029429.79844  -5477472.20144                  22000593.1234   22000592.7964
    376429.38644    293322.63844                  20233161.1874   20233160.9284
   -561632.43444   -437632.61244                  23246908.7634   23246909.1214
   6890134.79544   5368935.83344                  22534422.8714   22534424.6594
  -6162607.16744  -4802022.85644                  23934869.5844   23934871.7804
   -757507.50944                                                  24035481.8174
 96 12  2 23 46  0.0000000  0  8G27G19G31G18G 3G16G 2G10
  -7087276.99144  -5522547.80044                  22431241.2684   22431241.9984
  -2756697.76544  -2148074.17644                  20675851.8714   20675852.4064
  -7074914.13944  -5512914.51944                  21991937.6844   21991937.3744
    405928.36644    316308.85144                  20238774.7474   20238774.4424
   -538895.62544   -419915.64344                  23251235.8554   23251236.3164
   6975055.89144   5435108.10244                  22550583.1314   22550584.6014
  -6247315.62544  -4868029.37644                  23918749.5064   23918752.1054
   -804111.33144                                                  24026613.2834
 96 12  2 23 46 30.0000000  0  8G27G19G31G18G 3G16G 2G10
  -7150092.90544  -5571495.23944                  22419287.5904   22419288.4834
  -2772837.47444  -2160650.56944                  20672780.4974   20672781.0094
  -7119848.41344  -5547928.21244                  21983387.2714   21983386.7754
    435947.09044    339700.05944                  20244487.2614   20244486.9234
   -515624.94744   -401782.63744                  23255664.3554   23255664.3114
   7060226.92144   5501475.12644                  22566790.5284   22566791.8194
  -6331803.48244  -4933864.00544                  23902671.9884   23902674.3304
   -850205.22144                                                  24017841.7274
 96 12  2 23 47  0.0000000  0  8G27G19G31G18G 3G16G 2G10
  -7212833.03844  -5620383.63344                  22407348.5964   22407349.2314
  -2788813.57444  -2173099.47644                  20669740.4644   20669741.0334
  -7164229.20544  -5582510.62244                  21974941.8264   21974941.3244
    466493.19444    363502.21344                  20250299.9264   20250299.5614
   -491812.04444   -383227.12744                  23260195.6624   23260195.5654
   7145645.37144   5568034.93944                  22583044.9464   22583046.2144
  -6416069.36744  -4999525.65944                  23886637.1814   23886638.5784
   -895788.77544                                                  24009167.7254
 96 12  2 23 47 30.0000000  0  8G27G19G31G18G 3G16G 2G10
  -7275507.89744  -5669221.16444                  22395421.9824   22395422.7344
  -2804612.35044  -2185410.20844                  20666734.0504   20666734.5124
  -7208076.61144  -5616677.40044                  21966597.7354   21966597.3964
    497555.42544    387706.54344                  20256210.8324   20256210.5954
   -467455.63044   -364248.10244                  23264830.3164   23264830.3754
   7231295.32044   5634775.13544                  22599343.6004   22599344.8364
  -6500130.40844  -5065027.68144                  23870641.0974   23870642.5434
   -940885.45944                                                  24000585.3594
 96 12  2 23 48  0.0000000  0  8G27G19G31G18G 3G16G 2G10
  -7338120.94444  -5718010.53044                  22383507.1274   22383507.6384
  -2820221.98144  -2197573.55544                  20663763.5444   20663764.0664
  -7251408.44244  -5650442.43844                  21958351.9504   21958351.7554
    529128.62444    412309.03044                  20262219.1134   20262218.8664
   -442560.74644   -344849.48344                  23269567.5874   23269567.8704
   7317170.56544   5701690.89244                  22615684.8984   22615685.9844
  -6584003.40344  -5130383.17544                  23854680.4334   23854681.4344
   -985524.11444                                                  23992091.2354
 96 12  2 23 48 30.0000000  0  8G27G19G31G18G 3G16G 2G10
  -7400660.67844  -5766742.77444                  22371606.1124   22371606.7024
  -2835616.69844  -2209569.43544                  20660833.9414   20660834.3774
  -7294238.67944  -5683816.62444                  21950201.4544   21950201.4854
    561209.44044    437307.06344                  20268323.8644   20268323.6724
   -417130.73344   -325033.87144                  23274406.7924   23274406.9544
   7403292.77344   5768799.08744                  22632073.1894   22632075.3274
  -6667689.17344  -5195592.76744                  23838755.3744   23838757.3934
  -1029686.80044                                                  23983687.4484
 96 12  2 23 49  0.0000000  0  8G27G19G31G18G 3G16G 2G10
  -7463123.73744  -5815415.26944                  22359719.8404   22359720.7824
  -2850796.57044  -2221397.90544                  20657945.4274   20657945.8064
  -7336585.80944  -5716814.36044                  21942143.1304   21942142.7844
    593781.10444    462687.57844                  20274521.9364   20274521.8864
   -391167.72944   -304802.95844                  23279347.4614   23279347.3224
   7489671.78644   5836107.39244                  22648510.7934   22648512.6184
  -6751189.75144  -5260658.08844                  23822865.0244   23822867.9904
  -1073372.34544                                                  23975374.4044
 96 12  2 23 49 30.0000000  0  8G27G19G31G18G 3G16G 2G10
  -7525495.29544  -5864016.46644                  22347850.8654   22347851.7114
  -2865771.46144  -2233066.64644                  20655095.9214   20655096.2674
  -7378460.93844  -5749444.30444                  21934174.7164   21934174.2154
    626834.97044    488443.83444                  20280811.7834   20280811.5984
   -364685.20044   -284167.21044                  23284386.9414   23284386.7044
   7576298.18844   5903608.46344                  22664995.4574   22664997.7094
  -6834505.16744  -5325579.12444                  23807010.4104   23807013.6064
  -1116588.89644                                                  23967150.4104
 96 12  2 23 50  0.0000000  0  8G27G19G31G18G 3G16G 2G10
  -7587756.21844  -5912531.45444                  22336002.8614   22336003.5784
  -2880546.08244  -2244579.33644                  20652284.2284   20652284.6814
  -7419844.90944  -5781691.52744                  21926299.6434   21926299.6654
    660385.53044    514587.12044                  20287196.3684   20287196.1074
   -337670.80244   -263117.01944                  23289527.4844   23289527.4664
   7663185.62844   5971312.95444                  22681529.6304   22681531.6024
  -6917612.92444  -5390338.35544                  23791195.9274   23791198.6544
  -1159309.92044                                                  23959021.1494
 96 12  2 23 50 30.0000000  0  8G27G19G31G18G 3G16G 2G10
  -7649893.07344  -5960949.76744                  22324178.7334   22324179.5874
  -2895125.93544  -2255940.25544                  20649509.8004   20649510.2974
  -7460718.53444  -5813541.07344                  21918521.7034   21918521.1964
    694447.91444    541129.23144                  20293678.2634   20293678.0944
   -310107.91644   -241639.43944                  23294772.6264   23294772.9214
   7750334.72544   6039221.32344                  22698113.6384   22698114.9014
  -7000503.61744  -5454928.43644                  23775422.7404   23775425.5024
  -1201515.46044                                                  23950990.0014
 96 12  2 23 51  0.0000000  0  8G27G19G31G18G 3G16G 2G10
  -7711918.69544  -6009281.41244                  22312375.6554   22312376.2934
  -2909531.32544  -2267165.23044                  20646768.7074   20646769.1604
  -7501077.14444  -5844989.30944                  21910841.4324   21910841.1024
    729023.46944    568071.21844                  20300257.7084   20300257.7204
   -281995.91844   -219733.97944                  23300121.9394   23300121.9774
   7837713.97144   6107309.03344                  22714741.3714   22714743.6394
  -7083181.79044  -5519352.91444                  23759689.2844   23759691.6904
  -1243227.64744                                                  23943051.8304
 96 12  2 23 51 30.0000000  0  8G27G19G31G18G 3G16G 2G10
  -7773846.72344  -6057537.00844                  22300591.1164   22300591.7084
  -2923768.86144  -2278259.40944                  20644059.3894   20644059.8454
  -7540910.72444  -5876028.43644                  21903261.2964   21903261.0544
    764125.28144    595423.27644                  20306937.4114   20306937.1094
   -253332.11444   -197398.54144                  23305576.4434   23305576.8794
   7925307.06844   6175563.38744                  22731409.4734   22731412.5094
  -7165639.45944  -5583605.59044                  23743997.7064   23744000.5534
  -1284443.42544                                                  23935209.0604
 96 12  2 23 52  0.0000000  0  8G27G19G31G18G 3G16G 2G10
  -7835714.33544  -6105745.52244                  22288818.2384   22288818.7374
  -2937842.15144  -2289225.60544                  20641381.2194   20641381.6864
  -7580212.09344  -5906652.85444                  21895782.4064   21895782.2404
    799751.15844    623183.69444                  20313716.8944   20313716.4924
   -224122.44944   -174637.75944                  23311135.1364   23311134.9654
   8013098.84544   6243972.55044                  22748115.7994   22748118.6214
  -7247883.94544  -5647692.15044                  23728347.3174   23728350.5284
  -1325150.09444                                                  23927462.6314
 96 12  2 23 52 30.0000000  0  8G27G19G31G18G 3G16G 2G10
  -7897513.71444  -6153900.86244                  22277057.9214   22277058.3524
  -2951714.49344  -2300035.21644                  20638741.4584   20638741.9204
  -7618964.22644  -5936849.29144                  21888408.2694   21888407.7284
    835904.26644    651354.93744                  20320596.5124   20320596.0484
   -194364.76844   -151449.93644                  23316797.9974   23316798.7734
   8101094.30844   6312540.42244                  22764860.9894   22764863.0354
  -7329908.52544  -5711607.34944                  23712738.7394   23712740.6334
  -1365325.40144                                                  23919817.7844
 96 12  2 23 53  0.0000000  0  8G27G19G31G18G 3G16G 2G10
  -7959240.34444  -6201999.51644                  22265311.7774   22265312.3474
  -2965369.16244  -2310675.21044                  20636143.0084   20636143.5514
  -7657163.32244  -5966614.79444                  21881139.2584   21881139.0074
    872568.71144    679924.62844                  20327573.5094   20327573.2124
   -164072.36944   -127845.46544                  23322562.3844   23322562.8104
   8189293.50144   6381267.04544                  22781645.0094   22781646.9214
  -7411709.82044  -5775348.57244                  23697172.1444   23697174.2584
  -1404954.34444                                                  23912276.4964
 96 12  2 23 53 30.0000000  0  8G27G19G31G18G 3G16G 2G10
  -8020899.50644  -6250045.60344                  22253578.5694   22253578.9174
  -2978805.83644  -2321145.33644                  20633586.1194   20633586.6754
  -7694808.45644  -5995948.63844                  21873975.4054   21873975.2004
    909729.08944    708880.76244                  20334644.9754   20334644.6704
   -133259.51044   -103835.43944                  23328425.9834   23328425.6484
   8277695.89244   6450151.99744                  22798467.2874   22798469.3354
  -7493309.69244  -5838932.84544                  23681644.1574   23681646.2354
  -1444039.07444                                                  23904838.7094
 96 12  2 23 54  0.0000000  0  8G27G19G31G18G 3G16G 2G10
  -8082478.15144  -6298028.95144                  22241860.3534   22241860.9474
  -2992008.31944  -2331432.97744                  20631073.6614   20631074.1454
  -7731892.88944  -6024845.57444                  21866918.3874   21866918.0714
    947365.97744    738208.20044                  20341806.9534   20341806.7164
   -101936.56244    -79427.93744                  23334386.4374   23334386.7564
   8366300.17744   6519194.28344                  22815328.1614   22815329.9264
  -7574726.66144  -5902374.58644                  23666151.2204   23666153.1514
  -1482590.01544                                                  23897502.9944
 96 12  2 23 54 30.0000000  0  8G27G19G31G18G 3G16G 2G10
  -8143934.44444  -6345916.95544                  22230165.5254   22230166.2104
  -3004968.97444  -2341532.17944                  20628607.4164   20628607.8824
  -7768396.82344  -6053290.17144                  21859972.0684   21859971.7204
    985483.20044    767909.92844                  20349060.4494   20349060.3714
    -70076.76744    -54602.11544                  23340449.0604   23340448.5084
   8455122.60344   6588406.53844                  22832230.4614   22832231.9304
  -7655936.70244  -5965655.08444                  23650697.6294   23650699.0864
  -1520597.56644                                                  23890270.1604
 96 12  2 23 55  0.0000000  0  8G27G19G31G18G 3G16G 2G10
  -8205273.39844  -6393713.52844                  22218493.1094   22218494.0104
  -3017714.18244  -2351463.49944                  20626182.0654   20626182.4934
  -7804320.24244  -6081282.42644                  21853136.1094   21853135.6244
   1024087.99244    797991.57944                  20356406.6954   20356406.5694
    -37664.44144    -29345.73644                  23346616.8454   23346616.6134
   8544160.37444   6657786.59244                  22849173.5814   22849175.3644
  -7736929.24744  -6028766.10244                  23635285.1064   23635286.9734
  -1558075.68144                                                  23883138.3484
 96 12  2 23 55 30.0000000  0  8G27G19G31G18G 3G16G 2G10
  -8266515.71544  -6441434.80644                  22206839.1444   22206839.7504
  -3030265.43244  -2361243.68444                  20623793.5964   20623794.0594
  -7839677.79044  -6108833.73744                  21846407.6774   21846407.4944
   1063184.16444    828456.12544                  20363846.5144   20363846.2714
     -4692.35344     -3653.18844                  23352891.1044   23352891.0134
   8633406.94144   6727329.34844                  22866156.8644   22866157.4694
  -7817701.93044  -6091705.79944                  23619914.2694   23619915.5044
  -1595051.43144                                                  23876101.9384
 96 12  2 23 56  0.0000000  0  8G27G19G31G18G 3G16G 2G10
  -8327675.53444  -6489091.79844                  22195200.9454   22195201.6674
  -3042654.91344  -2370897.81444                  20621435.9424   20621436.3114
  -7874499.18644  -6135967.27244                  21839781.3304   21839780.9724
   1102754.50644    859290.15244                  20371376.5264   20371376.2394
     28818.79444     22459.39944                  23359267.8314   23359268.8454
   8722842.90744   6797019.67344                  22883175.7624   22883177.1414
  -7898251.24144  -6154471.43844                  23604586.3804   23604587.3834
  -1631536.68744                                                  23869159.3224
 96 12  2 23 56 30.0000000  0  8G27G19G31G18G 3G16G 2G10
  -8388750.27144  -6536682.48744                  22183578.8074   22183579.2794
  -3054884.68244  -2380427.49544                  20619108.5294   20619108.9984
  -7908786.38444  -6162684.54844                  21833256.7464   21833256.3564
   1142828.09144    890516.31644                  20379002.3134   20379002.0504
     62890.78444     49009.00944                  23365751.5414   23365752.4134
   8812479.21744   6866866.12944                  22900232.6184   22900234.5244
  -7978547.47044  -6217039.86044                  23589306.4824   23589307.8894
  -1667509.98144                                                  23862313.9844
 96 12  2 23 57  0.0000000  0  8G27G19G31G18G 3G16G 2G10
  -8449763.56444  -6584225.29744                  22171968.2984   22171968.7044
  -3066954.26944  -2389832.35744                  20616811.9384   20616812.3944
  -7942547.44844  -6188991.85244                  21826832.2204   21826831.6384
   1183413.31744    922141.16244                  20386725.2584   20386724.9864
     97499.61244     75976.93444                  23372337.6444   23372337.0974
   8902313.94244   6936867.18044                  22917327.7084   22917329.4794
  -8058605.14344  -6279422.40144                  23574072.0184   23574073.1564
  -1702985.83044                                                  23855562.5364
 96 12  2 23 57 30.0000000  0  8G27G19G31G18G 3G16G 2G10
  -8510718.21644  -6631722.41444                  22160369.0394   22160369.8504
  -3078866.48244  -2399114.59044                  20614545.0744   20614545.4894
  -7975786.12344  -6214892.09544                  21820506.8854   21820506.7954
   1224489.02444    954148.20044                  20394541.8364   20394541.5524
    132606.79844    103333.19544                  23379018.5134   23379019.2314
   8992330.25444   7007009.73944                  22934457.6544   22934458.8894
  -8138442.80144  -6341633.49044                  23558879.2664   23558880.0634
  -1737968.44444                                                  23848905.9634
 96 12  2 23 58  0.0000000  0  8G27G19G31G18G 3G16G 2G10
  -8571631.50744  -6679187.30344                  22148777.5734   22148778.0684
  -3090629.92144  -2408280.89644                  20612306.4454   20612306.9124
  -8008525.92644  -6240403.61444                  21814276.8224   21814276.6924
   1266025.33344    986514.15044                  20402445.9564   20402445.6814
    168170.59144    131045.24544                  23385785.9904   23385786.5394
   9082493.07444   7077266.45644                  22951615.2054   22951616.6254
  -8218096.55144  -6403701.29344                  23543721.3494   23543723.7324
  -1772470.75944  -1381144.58244                                  23842340.4494
 96 12  2 23 58 30.0000000  0  8G27G19G31G18G 3G16G 2G10
  -8632485.02844  -6726605.61044                  22137197.3224   22137198.1504
  -3102204.25144  -2417299.84444                  20610103.9564   20610104.4194
  -8040728.29144  -6265496.35844                  21808149.0724   21808148.7464
   1308056.01944   1019265.32744                  20410444.2144   20410443.9704
    204224.08044    159138.89244                  23392646.7594   23392646.2394
   9172831.49644   7147660.00444                  22968806.2014   22968808.0344
  -8297550.19344  -6465613.15644                  23528601.4534   23528603.1254
  -1806467.18244  -1407635.28344                                  23835870.9354
 96 12  2 23 59  0.0000000  0  8G27G19G31G18G 3G16G 2G10
  -8693239.92844  -6773947.06844                  22125636.1284   22125636.8514
  -3113548.47144  -2426139.48544                  20607945.2614   20607945.7354
  -8072347.25744  -6290134.49644                  21802132.2204   21802131.8944
   1350607.14844   1052422.04444                  20418541.4134   20418541.1754
    240792.22844    187633.55844                  23399605.1564   23399605.0394
   9263370.36744   7218209.75544                  22986035.1644   22986036.1764
  -8376768.96644  -6527342.02444                  23513526.8104   23513528.5694
  -1839933.60044  -1433713.03544                  23829502.8704   23829506.0914
